Flag for U.S.A. Weather past 2 weeks in Fort Worth, Texas, U.S.A.

Now
76 °F

Overcast.


Feels Like: 78 °F
Forecast: 62 / 74 °F
Wind: 15 mph from South

Location: Meacham International Airport


UV Index: 0 (Low)

Visibility: 10 mi


Pressure: 30.04 "Hg

Humidity: 47%

Dew point: 54 °F

Location of Fort WorthLocation

Historic Weather in Fort Worth

°F

Fort Worth temperature yesterday

Maximum temperature yesterday: 78 °F (at 1:53 PM)
Minimum temperature yesterday: 56 °F (at 6:53 AM)
Average temperature yesterday: 68 °F

Past Weeks' High & Low Weather Summary

 TemperatureHumidityPressure
High86 °F (Apr 10, 2:53 PM)100% (Apr 7, 6:53 AM)30.33 "Hg (Apr 7, 6:53 AM)
Low36 °F (Apr 15, 6:53 AM)20% (Apr 15, 2:53 PM)29.53 "Hg (Apr 13, 8:53 PM)
Average62 °F62%29.99 "Hg
* Reported Apr 5 1:53 PM — Apr 20 1:53 PM, Fort Worth, Weather by CustomWeather, © 2014

Note: Actual official high and low records may vary slightly from our data, if they occured in-between our weather recording intervals... More about our weather records

Advertising

Historic Weather Conditions — Data for Previous 24 hours

 ConditionsComfort  
Time TempWeatherWind HumidityBarometerVisibility
1:53 PM
Apr 20
78 °FScattered clouds.17 mph39%30.06 "Hg10 mi
12:53 PM79 °FOvercast.18 mph41%30.08 "Hg10 mi
11:53 AM78 °FPassing clouds.15 mph43%30.10 "Hg10 mi
10:53 AM75 °FSunny.14 mph48%30.09 "Hg10 mi
9:53 AM71 °FSunny.17 mph59%30.06 "Hg10 mi
8:53 AM65 °FPassing clouds.7 mph76%30.09 "Hg10 mi
7:53 AM65 °FClear.6 mph73%30.10 "Hg10 mi
6:53 AM65 °FClear.10 mph76%30.07 "Hg10 mi
5:53 AM64 °FClear.15 mph73%30.04 "Hg10 mi
4:53 AM66 °FClear.12 mph65%30.06 "Hg10 mi
3:53 AM65 °FClear.9 mph68%30.05 "Hg10 mi
2:53 AM62 °FClear.6 mph78%30.07 "Hg10 mi
1:53 AM65 °FClear.No wind68%30.10 "Hg10 mi
12:53 AM64 °FClear.5 mph73%30.10 "Hg10 mi
11:53 PM
Apr 19
66 °FClear.8 mph65%30.08 "Hg10 mi
10:53 PM66 °FClear.6 mph68%30.10 "Hg10 mi
9:53 PM69 °FClear.7 mph59%30.06 "Hg10 mi
8:53 PM71 °FSunny.8 mph55%30.06 "Hg10 mi
7:53 PM72 °FSunny.12 mph52%30.05 "Hg10 mi
6:53 PM76 °FPassing clouds.14 mph47%30.06 "Hg10 mi
5:53 PM75 °FPassing clouds.13 mph47%30.05 "Hg10 mi
4:53 PM76 °FSunny.13 mph43%30.05 "Hg10 mi
3:53 PM77 °FPassing clouds.12 mph42%30.07 "Hg10 mi
Weather by CustomWeather, © 2014

See weather overview